Content
SEND FEEDBACK

Daily
Averages
Monthly
Summary
United States of America

ITHACA, NEW YORK


Home > North America > United States > New York
Elevation: 1094 feet     Latitude: 42 29N     Longitude: 076 28W

WEATHER
 
SELECT A DAY
Number of Records: 162,064;   Date Range: 1/1/95 - 10/22/14
 
SHARE

PRINT THIS DATA

[ ← Previous Day ]
WEATHER ALMANAC - JANUARY 3, 2013
[ Next Day → ]
[ °C ]   °F
Weather ElementAverageHighLow
Temperature20.6 °F27.1 °F (7:56 pm)12 °F (12:56 am)
Dewpoint15.3 °F21.2 °F (10:36 pm)8.1 °F (12:56 am)
Humidity80.6 %92 % (6:24 am)69 % (2:17 pm)
Barometer30.09 in30.23 in (12:56 am)29.98 in (11:10 pm)
Wind Speed5.4 mph13.8 mph (8:56 pm)
Weather ElementAverage
Visibility7.4 mi
Wind DirectionSSE (159.7 °)

Weather ElementTotal
Precipitation---
Heating Degree Days45.5 (Base 65)
Averaged from 30 records on January 3, 2013
WEATHER CONDITIONS BREAKOUT
WIND DIRECTION BREAKOUT
WEATHER BY HOUR - JANUARY 3, 2013
[ °C ]   °F
Local TimeTemperatureDewpointHumidityBarometerVisibilityWind DirectionWind SpeedGust SpeedPrecipitationEventsConditions
12:24 AM12.2 °F8.6 °F85 %30.16 in4.0 miCalm0.00 inSnowLight Snow
12:56 AM12.0 °F8.1 °F84 %30.23 in4.0 miCalm0.00 inSnowLight Snow
1:56 AM13.1 °F9.1 °F84 %30.22 in5.0 miCalm0.00 inSnowLight Snow
2:56 AM12.0 °F9.1 °F88 %30.22 in5.0 miCalm0.00 inSnowLight Snow
3:56 AM12.0 °F9.1 °F88 %30.20 in10.0 miCalm0.00 inSnowLight Snow
4:56 AM12.0 °F9.1 °F88 %30.18 in9.0 miCalm0.00 inSnowLight Snow
5:56 AM12.0 °F9.1 °F88 %30.18 in9.0 miCalm0.00 inSnowLight Snow
6:24 AM12.2 °F10.4 °F92 %30.12 in7.0 miCalm0.00 inSnowLight Snow Showers
6:56 AM13.1 °F10.0 °F88 %30.18 in7.0 miEast (90°)3.5 mph0.00 inSnowLight Snow Showers
8:56 AM16.2 °F12.0 °F84 %30.17 in7.0 miSouth (170°)3.5 mph0.00 inSnowLight Snow Showers
9:56 AM19.0 °F15.1 °F85 %30.16 in6.0 miSSW (210°)9.2 mph0.00 inSnowLight Snow Showers
10:56 AM21.0 °F16.2 °F81 %30.15 in7.0 miSW (220°)6.9 mph0.00 inSnowLight Snow Showers
11:56 AM23.0 °F17.1 °F78 %30.12 in3.0 miSW (220°)6.9 mph0.00 inSnowLight Snow
12:29 PM21.2 °F17.6 °F86 %30.04 in1.2 miSSW (210°)6.9 mph0.00 inSnowLight Snow
12:56 PM22.1 °F16.2 °F78 %30.08 in6.0 miSW (220°)10.4 mph0.00 inSnowLight Snow Showers
1:56 PM23.0 °F16.2 °F75 %30.06 in7.0 miSSW (210°)6.9 mph0.00 inSnowLight Snow Showers
2:17 PM24.8 °F15.8 °F69 %29.99 in10.0 miSSW (210°)6.9 mph0.00 inSnowLight Snow Showers
2:56 PM24.1 °F15.1 °F69 %30.05 in10.0 miSouth (190°)8.1 mph0.00 inSnowLight Snow Showers
3:56 PM25.2 °F16.2 °F69 %30.03 in10.0 miSSW (210°)6.9 mph0.00 inSnowLight Snow Showers
4:56 PM25.2 °F18.1 °F75 %30.04 in10.0 miSW (220°)3.5 mph0.00 inSnowLight Snow Showers
5:40 PM24.8 °F19.4 °F80 %29.99 in6.0 miSW (230°)5.8 mph0.00 inSnowLight Snow Showers
5:56 PM25.2 °F19.0 °F78 %30.05 in6.0 miSW (230°)3.5 mph0.00 inSnowLight Snow Showers
6:56 PM26.1 °F19.0 °F75 %30.05 in10.0 miSSW (200°)6.9 mph0.00 inSnowLight Snow Showers
7:56 PM27.1 °F19.0 °F72 %30.04 in9.0 miWSW (240°)9.2 mph0.00 inSnowLight Snow Showers
8:56 PM27.1 °F20.1 °F75 %30.04 in9.0 miWSW (250°)13.8 mph0.00 inSnowLight Snow Showers
9:56 PM26.1 °F21.0 °F81 %30.04 in6.0 miWSW (250°)8.1 mph0.00 inSnowLight Snow Showers
10:36 PM26.6 °F21.2 °F80 %29.99 in10.0 miWest (260°)8.1 mph0.00 inSnowLight Snow
10:56 PM26.1 °F21.0 °F81 %30.04 in10.0 miWSW (250°)9.2 mph0.00 inSnowLight Snow
11:10 PM26.6 °F21.2 °F80 %29.98 in10.0 miWSW (250°)9.2 mph0.00 inSnowLight Snow
11:56 PM26.1 °F21.0 °F81 %30.03 in10.0 miWSW (250°)9.2 mph0.00 inSnowLight Snow
Hourly data recorded from KITH, located miles away from Ithaca, New York







STORIES FROM OUR PARTNERS